[[{"header":{"parameterUnit":"m.s-1","parameterCategory":2,"la1":30.2991,"la2":30.254,"lo1":-89.0895,"lo2":-89.0444,"dy":0.0017,"dx":0.0017,"nx":28,"ny":28,"refTime":"2025-08-02T21:00:00:Z","depth":"0","parameterNumber":2,"parameterNumberName":"U-component_of_CURRENTS"},"data":[0,0,0,0,0,0,0,0,0,0,0,0,0,0,0,0,0,0,0,0,0,0,0,0,0,0,0,0,0,0,0,0,0,0,0,0,0,0,0,0,0,0,0,0,0,0,0,0,0,0,0,0,0,0,0,0,0,0,-0.3193,-0.3193,0,-0.3232,-0.3232,-0.3233,-0.3184,-0.3183,-0.3181,-0.318,-0.3091,-0.309,-0.3089,0,0,0,0,0,0,0,0,0,0,0,0,0,-0.3088,-0.309,-0.3193,-0.3193,-0.3194,-0.3232,-0.3232,-0.3233,-0.3184,-0.3183,-0.3181,-0.3179,-0.3091,-0.309,-0.3089,0,0,0,0,0,0,0,0,0,0,0,0,0,-0.3129,-0.3091,-0.3192,-0.3176,-0.3175,-0.3232,-0.3232,-0.3233,-0.3185,-0.3182,-0.318,-0.3178,-0.3092,-0.3091,-0.3089,-0.3128,0,0,-0.3085,-0.3085,0,0,0,0,0,0,0,0,-0.3127,-0.3132,-0.3178,-0.3178,-0.3177,-0.3203,-0.3163,-0.3192,-0.3185,-0.3179,-0.318,-0.3177,-0.312,-0.3116,-0.3127,-0.3124,-0.312,-0.3085,-0.3084,-0.3084,-0.3083,0,0,0,0,0,0,0,-0.3124,-0.3131,-0.3206,-0.3179,-0.3178,-0.3172,-0.3175,-0.3169,-0.3158,-0.3179,-0.3176,-0.3185,-0.3118,-0.3129,-0.3124,-0.3119,-0.3085,-0.3084,-0.3083,-0.3082,-0.3152,-0.3155,0,0,0,0,0,0,-0.3126,-0.3128,-0.3205,-0.3207,-0.3148,-0.3176,-0.3179,-0.3195,-0.316,-0.3155,-0.3187,-0.3183,-0.3132,-0.3126,-0.3121,-0.3157,-0.3084,-0.3082,-0.3082,-0.315,-0.3153,-0.3156,0,0,0,0,0,0,-0.3124,-0.3133,-0.3203,-0.317,-0.3178,-0.318,-0.3199,-0.3197,-0.3195,-0.3169,-0.3159,-0.3186,-0.313,-0.3123,-0.3123,-0.3153,-0.3082,-0.3081,-0.3147,-0.3151,-0.3154,-0.3233,0,0,0,0,0,0,-0.3121,-0.3132,-0.3139,-0.317,-0.318,-0.3235,-0.3201,-0.32,-0.3207,-0.3201,-0.3165,-0.3155,-0.3128,-0.3125,-0.3121,-0.3149,-0.3079,-0.3143,-0.3148,-0.3153,-0.3227,-0.3239,-0.3249,0,0,0,0,0,-0.3117,-0.313,-0.3139,-0.3148,-0.3192,-0.3236,-0.3241,-0.3232,-0.3209,-0.3219,-0.32,-0.3156,-0.3154,-0.3126,-0.3121,-0.3149,-0.3141,-0.3147,-0.3153,-0.3222,-0.3236,-0.3249,0,0,0,0,0,0,-0.3077,-0.3128,-0.3138,-0.3162,-0.32,-0.3228,-0.3231,-0.3236,-0.3233,-0.3218,-0.3183,-0.3174,-0.3191,-0.3168,-0.3138,-0.319,-0.3144,-0.3149,-0.3198,-0.3211,-0.3222,-0.323,-0.3078,0,0,0,0,0,-0.3079,-0.3101,-0.3154,-0.3171,-0.3191,-0.3215,-0.3228,-0.3235,-0.3242,-0.3238,-0.3221,-0.321,-0.322,-0.3209,-0.3212,-0.3232,-0.3193,-0.3252,-0.3263,-0.3273,-0.328,-0.3272,-0.3282,-0.3175,-0.3175,-0.3175,0,0,-0.3063,-0.3097,-0.3105,-0.3165,-0.3185,-0.3231,-0.3215,-0.3243,-0.3277,-0.3229,-0.3251,-0.3247,-0.3237,-0.3267,-0.3272,-0.3241,-0.3279,-0.328,-0.3288,-0.329,-0.3279,-0.3289,-0.3298,-0.3179,-0.3179,-0.3178,0,0,-0.3051,-0.308,-0.3099,-0.3146,-0.3198,-0.3229,-0.324,-0.3283,-0.3292,-0.3328,-0.3312,-0.3338,-0.3328,-0.3349,-0.3353,-0.3433,-0.3345,-0.3421,-0.3472,-0.3464,-0.3472,-0.3479,-0.3414,-0.3414,-0.3419,-0.3419,-0.3419,0,-0.3027,-0.3069,-0.311,-0.3156,-0.319,-0.3231,-0.327,-0.3309,-0.3345,-0.3361,-0.3338,-0.338,-0.338,-0.343,-0.3465,-0.3459,-0.3405,-0.3414,-0.3476,-0.3482,-0.3487,-0.3419,-0.3418,-0.3423,-0.3423,-0.3422,-0.3422,0,-0.3042,-0.3084,-0.31,-0.3177,-0.3224,-0.3262,-0.3336,-0.3374,-0.339,-0.3423,-0.347,-0.3488,-0.3504,-0.3525,-0.3517,-0.3569,-0.35,-0.3493,-0.3433,-0.3502,-0.3426,-0.3424,-0.343,-0.3428,-0.3427,-0.3426,0,0,-0.2954,-0.3084,-0.3086,-0.3129,-0.3238,-0.3272,-0.3353,-0.3427,-0.3455,-0.3509,-0.3535,-0.3611,-0.361,-0.3618,-0.3621,-0.3633,-0.3635,-0.3576,-0.3573,-0.3495,-0.3555,-0.3282,-0.3252,-0.3616,-0.3617,-0.3618,-0.3475,0,-0.2944,-0.3022,-0.3099,-0.3173,-0.3217,-0.3306,-0.3373,-0.345,-0.3497,-0.3536,-0.3591,-0.3615,-0.3648,-0.364,-0.3673,-0.3643,-0.3636,-0.3671,-0.3514,-0.3509,-0.3245,-0.3244,-0.3021,-0.2855,-0.3472,-0.3471,-0.3471,0,-0.2916,-0.2981,-0.3046,-0.317,-0.3195,-0.3249,-0.3342,-0.3412,-0.3507,-0.3535,-0.3594,-0.3615,-0.3674,-0.3671,-0.3671,-0.3675,-0.3628,-0.3603,-0.3596,-0.3313,-0.3232,-0.2895,-0.2827,-0.2809,-0.3466,-0.3467,-0.3467,0,-0.2802,-0.2934,-0.2978,-0.3024,-0.3174,-0.3209,-0.3282,-0.3391,-0.3431,-0.3519,-0.3521,-0.3608,-0.3591,-0.361,-0.3567,-0.3611,-0.3502,-0.3555,-0.3267,-0.3245,-0.3012,-0.2966,-0.2893,-0.3541,-0.3541,-0.3542,-0.3542,0,-0.2746,-0.2776,-0.2924,-0.2947,-0.2995,-0.313,-0.3171,-0.3259,-0.3352,-0.3368,-0.3493,-0.3469,-0.3569,-0.3521,-0.3528,-0.3338,-0.3465,-0.3253,-0.3189,-0.3026,-0.2986,-0.2923,-0.2996,-0.3536,-0.3537,-0.3538,-0.3539,0,-0.2594,-0.2699,-0.2749,-0.2896,-0.2936,-0.2959,-0.3085,-0.3116,-0.3221,-0.3235,-0.325,-0.3331,-0.3244,-0.3278,-0.3245,-0.3205,-0.3019,-0.3013,-0.2774,-0.2682,-0.2393,-0.2479,-0.2331,-0.2279,-0.2691,-0.2683,-0.2677,0,-0.2518,-0.253,-0.2662,-0.2685,-0.2741,-0.2808,-0.2853,-0.3011,-0.3042,-0.3114,-0.309,-0.3033,-0.2926,-0.2754,-0.2663,-0.2545,-0.2668,-0.2294,-0.2364,-0.2308,-0.2362,-0.2461,-0.2442,-0.2094,-0.2083,-0.2074,-0.2067,0,-0.2361,-0.2403,-0.2449,-0.2505,-0.255,-0.2611,-0.2686,-0.2698,-0.2851,-0.284,-0.2772,-0.2683,-0.2465,-0.2205,-0.203,-0.1975,-0.22,-0.2102,-0.2141,-0.1944,-0.1957,-0.1895,-0.2245,-0.1989,-0.1997,-0.2003,-0.2007,-0.201,-0.2214,-0.2204,-0.227,-0.2306,-0.2363,-0.24,-0.2391,-0.2454,-0.245,-0.2413,-0.2428,-0.2217,-0.1944,-0.1624,-0.1543,-0.1316,-0.1562,-0.1326,-0.1449,-0.1565,-0.1469,-0.1586,-0.1197,-0.12,-0.1203,-0.1205,-0.1207,0,-0.204,-0.2055,-0.2076,-0.2126,-0.2122,-0.2222,-0.2265,-0.2216,-0.2129,-0.2068,-0.1954,-0.1606,-0.1268,-0.11,-0.081,-0.0736,-0.0826,-0.0773,-0.0947,-0.0975,-0.1123,-0.1047,-0.0487,-0.0487,-0.0487,-0.0487,-0.0487,-0.0488,-0.195,-0.1907,-0.1933,-0.1881,-0.1911,-0.1869,-0.1863,-0.1783,-0.171,-0.145,-0.1254,-0.1131,-0.0898,-0.0749,-0.0542,-0.0498,-0.0633,-0.0531,-0.0718,-0.0906,-0.0973,-0.1036,-0.0981,-0.0416,-0.0416,-0.048,-0.0481,-0.0482]},{"header":{"parameterUnit":"m.s-1","parameterCategory":2,"la1":30.2991,"la2":30.254,"lo1":-89.0895,"lo2":-89.0444,"dy":0.0017,"dx":0.0017,"nx":28,"ny":28,"refTime":"2025-08-02T21:00:00:Z","depth":"0","parameterNumber":3,"parameterNumberName":"V-component_of_CURRENTS"},"data":[0,0,0,0,0,0,0,0,0,0,0,0,0,0,0,0,0,0,0,0,0,0,0,0,0,0,0,0,0,0,0,0,0,0,0,0,0,0,0,0,0,0,0,0,0,0,0,0,0,0,0,0,0,0,0,0,0,0,-0.1086,-0.1085,0,-0.0949,-0.0947,-0.0945,-0.0839,-0.0838,-0.0837,-0.0837,-0.069,-0.0687,-0.0684,0,0,0,0,0,0,0,0,0,0,0,0,0,-0.1161,-0.1161,-0.1087,-0.1085,-0.1084,-0.0949,-0.0947,-0.0944,-0.0839,-0.0838,-0.0837,-0.0837,-0.0692,-0.0688,-0.0684,0,0,0,0,0,0,0,0,0,0,0,0,0,-0.1083,-0.1161,-0.1087,-0.1019,-0.1011,-0.0949,-0.0947,-0.0944,-0.0839,-0.0838,-0.0837,-0.0836,-0.0693,-0.0688,-0.0683,-0.0669,0,0,-0.0668,-0.0665,0,0,0,0,0,0,0,0,-0.1087,-0.1079,-0.103,-0.1023,-0.1015,-0.0914,-0.0919,-0.0853,-0.0839,-0.0899,-0.0837,-0.0836,-0.0768,-0.0757,-0.0726,-0.0662,-0.0656,-0.0667,-0.0664,-0.0662,-0.066,0,0,0,0,0,0,0,-0.1093,-0.1084,-0.1027,-0.1029,-0.102,-0.0962,-0.095,-0.0905,-0.0836,-0.0894,-0.0887,-0.088,-0.0763,-0.0731,-0.0722,-0.0653,-0.0667,-0.0663,-0.066,-0.0658,-0.0576,-0.0577,0,0,0,0,0,0,-0.1126,-0.109,-0.1032,-0.1023,-0.1055,-0.0962,-0.0948,-0.0944,-0.0837,-0.0821,-0.0881,-0.0875,-0.074,-0.0728,-0.0717,-0.071,-0.0662,-0.0657,-0.0654,-0.0575,-0.0576,-0.0577,0,0,0,0,0,0,-0.1128,-0.1122,-0.1037,-0.1057,-0.1043,-0.0963,-0.0957,-0.0941,-0.0908,-0.0828,-0.081,-0.0865,-0.0739,-0.0724,-0.0687,-0.0703,-0.0655,-0.065,-0.0574,-0.0575,-0.0577,-0.0687,0,0,0,0,0,0,-0.1131,-0.1123,-0.1123,-0.106,-0.1043,-0.1021,-0.0958,-0.0939,-0.0907,-0.0899,-0.0809,-0.0794,-0.0737,-0.0695,-0.0682,-0.0695,-0.0646,-0.0573,-0.0575,-0.0576,-0.0682,-0.0692,-0.07,0,0,0,0,0,-0.1134,-0.1139,-0.1124,-0.1117,-0.1048,-0.1023,-0.1009,-0.0945,-0.0908,-0.0908,-0.0843,-0.0796,-0.0696,-0.0692,-0.0676,-0.0688,-0.0572,-0.0574,-0.0576,-0.0678,-0.069,-0.07,0,0,0,0,0,0,-0.116,-0.1128,-0.111,-0.1102,-0.1077,-0.1007,-0.0992,-0.0954,-0.09,-0.0886,-0.0805,-0.0787,-0.076,-0.0712,-0.071,-0.067,-0.0627,-0.0626,-0.071,-0.072,-0.0729,-0.0727,-0.0642,0,0,0,0,0,-0.1173,-0.1171,-0.1136,-0.1129,-0.1122,-0.106,-0.1037,-0.1003,-0.0951,-0.0924,-0.0867,-0.0805,-0.0756,-0.073,-0.0682,-0.0662,-0.0621,-0.066,-0.0669,-0.0677,-0.0665,-0.0632,-0.0637,-0.0583,-0.0583,-0.0583,0,0,-0.1177,-0.1162,-0.1156,-0.1136,-0.1103,-0.1105,-0.1043,-0.1022,-0.1018,-0.092,-0.0893,-0.0835,-0.0757,-0.0733,-0.0717,-0.0695,-0.0677,-0.068,-0.0687,-0.067,-0.0635,-0.064,-0.0645,-0.0585,-0.0584,-0.0584,0,0,-0.1194,-0.1179,-0.1187,-0.1183,-0.1161,-0.1134,-0.1138,-0.1088,-0.106,-0.104,-0.0962,-0.0916,-0.0852,-0.0793,-0.0756,-0.0786,-0.0726,-0.0776,-0.0816,-0.0787,-0.0791,-0.0793,-0.0776,-0.0777,-0.078,-0.0781,-0.0781,0,-0.12,-0.1209,-0.1185,-0.1202,-0.1203,-0.1158,-0.1175,-0.1147,-0.1092,-0.1066,-0.1053,-0.0934,-0.0879,-0.0819,-0.0829,-0.0806,-0.0781,-0.0785,-0.0799,-0.0801,-0.0802,-0.0783,-0.0782,-0.0786,-0.0786,-0.0785,-0.0785,0,-0.1225,-0.1241,-0.1249,-0.1261,-0.1263,-0.1271,-0.1251,-0.124,-0.121,-0.1168,-0.1115,-0.1038,-0.096,-0.0946,-0.0895,-0.0867,-0.0846,-0.0818,-0.0775,-0.0814,-0.0792,-0.0789,-0.0794,-0.0792,-0.0791,-0.0789,0,0,-0.1217,-0.1259,-0.1263,-0.1288,-0.1299,-0.1303,-0.1312,-0.1293,-0.1273,-0.1234,-0.1199,-0.1123,-0.1062,-0.1014,-0.0944,-0.0916,-0.0918,-0.0876,-0.0872,-0.0865,-0.0862,-0.0742,-0.0727,-0.0895,-0.0895,-0.0894,-0.0854,0,-0.1242,-0.1297,-0.1308,-0.136,-0.1387,-0.1376,-0.1387,-0.1366,-0.1327,-0.1288,-0.1205,-0.1147,-0.1094,-0.1053,-0.1019,-0.0932,-0.091,-0.0932,-0.0818,-0.0815,-0.0707,-0.0718,-0.064,-0.0587,-0.085,-0.085,-0.0849,0,-0.126,-0.1299,-0.1356,-0.1415,-0.1424,-0.145,-0.1448,-0.1451,-0.1388,-0.1351,-0.1277,-0.1203,-0.1133,-0.1095,-0.0987,-0.1004,-0.0941,-0.0887,-0.0884,-0.0721,-0.0686,-0.0583,-0.057,-0.0396,-0.0844,-0.0844,-0.0845,0,-0.1262,-0.1334,-0.1383,-0.1404,-0.1457,-0.1475,-0.1496,-0.146,-0.1446,-0.1377,-0.134,-0.1251,-0.1188,-0.1116,-0.0986,-0.0997,-0.0869,-0.0873,-0.0708,-0.07,-0.058,-0.0561,-0.0382,-0.0804,-0.0804,-0.0804,-0.0805,0,-0.1283,-0.1322,-0.1392,-0.142,-0.1476,-0.1503,-0.1525,-0.1515,-0.1479,-0.1443,-0.1365,-0.1295,-0.1189,-0.1088,-0.1004,-0.0827,-0.0883,-0.0702,-0.067,-0.0618,-0.0603,-0.04,-0.037,-0.0803,-0.0803,-0.0804,-0.0804,0,-0.1266,-0.1315,-0.1377,-0.1451,-0.148,-0.1516,-0.1565,-0.1565,-0.1526,-0.1474,-0.1453,-0.1331,-0.1194,-0.1069,-0.0929,-0.0821,-0.058,-0.0614,-0.0558,-0.0517,-0.0199,-0.018,-0.001,0.0089,-0.0448,-0.0444,-0.0441,0,-0.1258,-0.1287,-0.1391,-0.1439,-0.1478,-0.1537,-0.1573,-0.1582,-0.157,-0.1475,-0.1443,-0.1297,-0.1171,-0.0915,-0.0703,-0.0523,-0.0432,-0.0327,-0.0318,-0.0145,-0.0103,-0.0114,-0.0047,-0.0231,-0.0227,-0.0223,-0.022,0,-0.1231,-0.1267,-0.1321,-0.1428,-0.1494,-0.1558,-0.1605,-0.1606,-0.1583,-0.1529,-0.142,-0.1319,-0.1026,-0.0767,-0.0487,-0.0352,-0.0189,-0.0244,-0.0081,0.0086,0.0099,0.0198,-0.0312,-0.0188,-0.0192,-0.0194,-0.0196,-0.0197,-0.1192,-0.1229,-0.131,-0.1407,-0.1491,-0.1555,-0.1571,-0.1597,-0.1577,-0.1494,-0.1422,-0.126,-0.085,-0.0434,-0.0255,0.0202,0.0078,0.0304,0.0306,0.0275,0.0408,-0.0017,0.0164,0.0163,0.0162,0.0161,0.016,0,-0.1136,-0.1197,-0.1288,-0.1399,-0.1468,-0.1526,-0.1568,-0.1543,-0.1501,-0.1467,-0.1378,-0.0968,-0.0549,-0.0129,0.0488,0.0717,0.0736,0.082,0.0814,0.0852,0.048,0.0536,0.0828,0.0828,0.0828,0.0828,0.0827,0.0827,-0.1108,-0.1171,-0.1235,-0.1341,-0.1415,-0.1447,-0.1453,-0.1411,-0.1367,-0.1197,-0.1021,-0.0874,-0.0166,0.0554,0.1136,0.1193,0.1322,0.1288,0.1347,0.1092,0.1043,0.0997,0.1063,0.1461,0.1462,0.1737,0.1739,0.1741]}],[{"header":{"parameterUnit":"m.s-1","parameterCategory":2,"la1":30.2991,"la2":30.254,"lo1":-89.0895,"lo2":-89.0444,"dy":0.0017,"dx":0.0017,"nx":28,"ny":28,"refTime":"2025-08-02T21:00:00:Z","depth":"2","parameterNumber":2,"parameterNumberName":"U-component_of_CURRENTS"},"data":[0,0,0,0,0,0,0,0,0,0,0,0,0,0,0,0,0,0,0,0,0,0,0,0,0,0,0,0,0,0,0,0,0,0,0,0,0,0,0,0,0,0,0,0,0,0,0,0,0,0,0,0,0,0,0,0,0,0,-0.2693,-0.2693,0,-0.2689,-0.2688,-0.2688,-0.2711,-0.2712,-0.2713,-0.2714,-0.2624,-0.2621,-0.2618,0,0,0,0,0,0,0,0,0,0,0,0,0,-0.2745,-0.2744,-0.2692,-0.2693,-0.2693,-0.2689,-0.2688,-0.2688,-0.2711,-0.2712,-0.2713,-0.2715,-0.2625,-0.2621,-0.2617,0,0,0,0,0,0,0,0,0,0,0,0,0,-0.2727,-0.2743,-0.2692,-0.2706,-0.2708,-0.2689,-0.2688,-0.2688,-0.2711,-0.2712,-0.2714,-0.2715,-0.2626,-0.2622,-0.2617,-0.2558,0,0,-0.2602,-0.2599,0,0,0,0,0,0,0,0,-0.2728,-0.2724,-0.2704,-0.2705,-0.2707,-0.2705,-0.2674,-0.2641,-0.271,-0.2706,-0.2714,-0.2716,-0.2644,-0.2638,-0.263,-0.2553,-0.255,-0.2601,-0.2598,-0.2596,-0.2595,0,0,0,0,0,0,0,-0.2729,-0.2725,-0.2688,-0.2704,-0.2706,-0.2722,-0.272,-0.2668,-0.2663,-0.2707,-0.2709,-0.2713,-0.2644,-0.2635,-0.2628,-0.2548,-0.2601,-0.2597,-0.2594,-0.2592,-0.2507,-0.2508,0,0,0,0,0,0,-0.2733,-0.2726,-0.2688,-0.2688,-0.2725,-0.272,-0.2718,-0.2701,-0.2666,-0.2663,-0.2712,-0.2715,-0.2643,-0.2634,-0.2625,-0.2622,-0.2596,-0.2591,-0.2589,-0.2507,-0.2507,-0.2508,0,0,0,0,0,0,-0.2733,-0.2728,-0.2688,-0.2711,-0.2707,-0.2717,-0.2699,-0.2701,-0.2721,-0.2671,-0.2667,-0.2735,-0.2644,-0.2632,-0.2618,-0.2616,-0.2589,-0.2585,-0.2506,-0.2507,-0.2508,-0.2571,0,0,0,0,0,0,-0.2734,-0.2728,-0.2728,-0.271,-0.2706,-0.2702,-0.2698,-0.27,-0.2721,-0.2725,-0.2688,-0.268,-0.2644,-0.2626,-0.2613,-0.2609,-0.2581,-0.2505,-0.2506,-0.2508,-0.2568,-0.2575,-0.258,0,0,0,0,0,-0.2736,-0.2725,-0.2727,-0.2724,-0.2701,-0.2703,-0.2703,-0.2713,-0.2721,-0.2735,-0.272,-0.2683,-0.2625,-0.2623,-0.2608,-0.2602,-0.2504,-0.2506,-0.2507,-0.2566,-0.2573,-0.258,0,0,0,0,0,0,-0.2738,-0.2726,-0.2728,-0.2711,-0.2721,-0.2709,-0.2717,-0.2727,-0.2725,-0.2728,-0.2689,-0.2679,-0.2664,-0.2629,-0.2627,-0.2584,-0.2558,-0.2557,-0.2608,-0.2614,-0.262,-0.2579,-0.2577,0,0,0,0,0,-0.2739,-0.273,-0.2729,-0.2717,-0.2723,-0.2725,-0.2731,-0.2741,-0.2733,-0.2736,-0.2718,-0.2688,-0.2651,-0.2635,-0.2599,-0.2571,-0.2534,-0.256,-0.2566,-0.2571,-0.2529,-0.2497,-0.2495,-0.2513,-0.2513,-0.2513,0,0,-0.2736,-0.2727,-0.2723,-0.2719,-0.272,-0.2715,-0.2732,-0.2745,-0.2737,-0.272,-0.2712,-0.2705,-0.265,-0.2628,-0.2617,-0.2602,-0.2556,-0.2573,-0.2577,-0.2531,-0.2498,-0.2496,-0.2494,-0.2515,-0.2514,-0.2514,0,0,-0.271,-0.2718,-0.2701,-0.2711,-0.2724,-0.2727,-0.274,-0.275,-0.2757,-0.2753,-0.2738,-0.273,-0.2688,-0.2647,-0.2616,-0.2624,-0.2589,-0.2636,-0.2623,-0.2595,-0.2593,-0.259,-0.2583,-0.2579,-0.2637,-0.2638,-0.2638,0,-0.2718,-0.2678,-0.2702,-0.2688,-0.2689,-0.2733,-0.2717,-0.2725,-0.2735,-0.2729,-0.2759,-0.2707,-0.2677,-0.2618,-0.2633,-0.2629,-0.2628,-0.2605,-0.2601,-0.2597,-0.2593,-0.2586,-0.258,-0.2641,-0.2641,-0.264,-0.264,0,-0.2664,-0.2653,-0.2647,-0.2638,-0.2649,-0.2651,-0.2667,-0.269,-0.2716,-0.2716,-0.2705,-0.2688,-0.2653,-0.266,-0.2642,-0.2604,-0.2621,-0.2617,-0.2582,-0.2595,-0.2588,-0.2581,-0.2646,-0.2644,-0.2643,-0.2643,0,0,-0.263,-0.2614,-0.2616,-0.2599,-0.2625,-0.262,-0.2626,-0.2626,-0.2623,-0.2655,-0.2637,-0.2604,-0.263,-0.2595,-0.2598,-0.2575,-0.257,-0.2594,-0.2591,-0.2583,-0.2538,-0.2367,-0.2343,-0.2588,-0.2586,-0.2585,-0.256,0,-0.2587,-0.2547,-0.2551,-0.252,-0.2504,-0.2546,-0.254,-0.2553,-0.2583,-0.2591,-0.2588,-0.2576,-0.2595,-0.2604,-0.2584,-0.2571,-0.2548,-0.2577,-0.2527,-0.2524,-0.2366,-0.2326,-0.2132,-0.2075,-0.2553,-0.2552,-0.2551,0,-0.2526,-0.2508,-0.2477,-0.2451,-0.2448,-0.2452,-0.2463,-0.2461,-0.2488,-0.2505,-0.2518,-0.254,-0.2518,-0.2542,-0.2503,-0.2537,-0.2526,-0.2518,-0.2517,-0.2309,-0.2335,-0.213,-0.2044,-0.2539,-0.254,-0.2541,-0.2541,0,-0.2476,-0.2446,-0.2422,-0.242,-0.2413,-0.2417,-0.2423,-0.245,-0.2432,-0.2471,-0.2474,-0.2478,-0.2482,-0.2469,-0.2469,-0.2498,-0.2427,-0.2462,-0.229,-0.2282,-0.2068,-0.204,-0.2398,-0.2398,-0.2398,-0.2398,-0.2398,0,-0.2421,-0.2392,-0.2409,-0.2395,-0.2364,-0.2383,-0.2363,-0.238,-0.239,-0.235,-0.2435,-0.2399,-0.2466,-0.2452,-0.2451,-0.2332,-0.241,-0.2242,-0.2234,-0.2089,-0.2064,-0.2419,-0.2422,-0.2397,-0.2397,-0.2398,-0.2398,0,-0.2365,-0.238,-0.2335,-0.2337,-0.2343,-0.2327,-0.2314,-0.2274,-0.2328,-0.2289,-0.2298,-0.234,-0.2316,-0.2358,-0.2337,-0.2273,-0.2202,-0.2144,-0.1976,-0.1942,-0.2093,-0.21,-0.1936,-0.1929,-0.1923,-0.1918,-0.1914,0,-0.2319,-0.2303,-0.2294,-0.2267,-0.2275,-0.2262,-0.2224,-0.2245,-0.2208,-0.2216,-0.2171,-0.2184,-0.2115,-0.2036,-0.1965,-0.1897,-0.2045,-0.1662,-0.1626,-0.2021,-0.2032,-0.2048,-0.2063,-0.1419,-0.1411,-0.1404,-0.1399,0,-0.2216,-0.2237,-0.2208,-0.2175,-0.2142,-0.2081,-0.2056,-0.2029,-0.2035,-0.2008,-0.1941,-0.1893,-0.1806,-0.1623,-0.1549,-0.1489,-0.1656,-0.152,-0.196,-0.1541,-0.1523,-0.1538,-0.1571,-0.1342,-0.1348,-0.1352,-0.1355,-0.1357,-0.2131,-0.2104,-0.2085,-0.2042,-0.1998,-0.1921,-0.1845,-0.182,-0.1754,-0.1684,-0.1701,-0.1548,-0.1487,-0.1234,-0.1154,-0.1099,-0.1221,-0.1159,-0.1184,-0.1214,-0.1133,-0.1102,-0.0831,-0.0833,-0.0836,-0.0838,-0.084,0,-0.1993,-0.1984,-0.1935,-0.187,-0.1773,-0.1803,-0.1716,-0.1603,-0.1511,-0.1465,-0.1381,-0.111,-0.092,-0.0901,-0.0689,-0.0614,-0.068,-0.0603,-0.07,-0.0751,-0.0799,-0.0705,-0.0285,-0.0284,-0.0284,-0.0283,0,0,-0.1918,-0.1844,-0.1835,-0.1671,-0.163,-0.1482,-0.1425,-0.1277,-0.1214,-0.1063,-0.0956,-0.0927,-0.0857,-0.0611,-0.0522,-0.0386,-0.0604,-0.0355,-0.0785,-0.0954,-0.1003,-0.1073,-0.0977,0,0,0,0,0]},{"header":{"parameterUnit":"m.s-1","parameterCategory":2,"la1":30.2991,"la2":30.254,"lo1":-89.0895,"lo2":-89.0444,"dy":0.0017,"dx":0.0017,"nx":28,"ny":28,"refTime":"2025-08-02T21:00:00:Z","depth":"2","parameterNumber":3,"parameterNumberName":"V-component_of_CURRENTS"},"data":[0,0,0,0,0,0,0,0,0,0,0,0,0,0,0,0,0,0,0,0,0,0,0,0,0,0,0,0,0,0,0,0,0,0,0,0,0,0,0,0,0,0,0,0,0,0,0,0,0,0,0,0,0,0,0,0,0,0,0.0557,0.0558,0,0.0699,0.07,0.0702,0.0774,0.0774,0.0774,0.0774,0.0992,0.0998,0.1003,0,0,0,0,0,0,0,0,0,0,0,0,0,0.0452,0.0453,0.0557,0.0559,0.056,0.0698,0.07,0.0703,0.0774,0.0774,0.0774,0.0774,0.099,0.0997,0.1004,0,0,0,0,0,0,0,0,0,0,0,0,0,0.0537,0.0453,0.0557,0.0612,0.0618,0.0698,0.0701,0.0703,0.0774,0.0774,0.0774,0.0774,0.0988,0.0996,0.1005,0.1061,0,0,0.1032,0.1036,0,0,0,0,0,0,0,0,0.0532,0.0541,0.0602,0.0608,0.0615,0.0717,0.0743,0.0826,0.0774,0.0716,0.0774,0.0773,0.0906,0.0922,0.0949,0.1071,0.1081,0.1033,0.1038,0.1042,0.1044,0,0,0,0,0,0,0,0.0526,0.0535,0.0614,0.0604,0.0612,0.0665,0.0676,0.076,0.0812,0.0721,0.0726,0.074,0.0911,0.0941,0.0955,0.1084,0.1032,0.104,0.1046,0.1049,0.1298,0.13,0,0,0,0,0,0,0.05,0.0529,0.061,0.0618,0.0571,0.0666,0.0679,0.0686,0.081,0.0828,0.074,0.0743,0.0926,0.0945,0.0963,0.104,0.1042,0.105,0.1055,0.1297,0.1299,0.13,0,0,0,0,0,0,0.0497,0.0506,0.0604,0.0577,0.0593,0.0667,0.0675,0.0688,0.0727,0.0823,0.0843,0.0765,0.0926,0.0951,0.1043,0.1049,0.1054,0.1062,0.1295,0.1297,0.1299,0.1193,0,0,0,0,0,0,0.0494,0.0504,0.0513,0.0574,0.0593,0.0646,0.0675,0.0691,0.0735,0.074,0.0852,0.0871,0.0928,0.103,0.1052,0.1062,0.1069,0.1294,0.1296,0.1299,0.1195,0.1192,0.1188,0,0,0,0,0,0.0489,0.0496,0.0512,0.0522,0.0598,0.0646,0.066,0.0714,0.0736,0.075,0.0829,0.0868,0.1062,0.1038,0.1064,0.1076,0.1292,0.1296,0.1298,0.1197,0.1192,0.1188,0,0,0,0,0,0,0.0456,0.0506,0.0524,0.0546,0.0589,0.0657,0.0677,0.0717,0.0791,0.0802,0.0889,0.0915,0.0996,0.1061,0.1032,0.1159,0.1183,0.1191,0.1097,0.1094,0.109,0.1057,0.1076,0,0,0,0,0,0.045,0.046,0.052,0.0531,0.0552,0.0616,0.0647,0.0684,0.0751,0.0783,0.0856,0.0946,0.103,0.1078,0.1158,0.1233,0.1249,0.126,0.1256,0.1253,0.1246,0.1274,0.1271,0.131,0.131,0.131,0,0,0.042,0.0464,0.0458,0.0523,0.056,0.0587,0.0634,0.0675,0.07,0.0799,0.0855,0.0938,0.1048,0.1122,0.1165,0.1176,0.1247,0.1257,0.1252,0.1248,0.1277,0.1272,0.1268,0.1312,0.1312,0.1311,0,0,0.0375,0.042,0.0413,0.0461,0.0527,0.057,0.0579,0.0651,0.0685,0.0754,0.0831,0.0915,0.1037,0.1111,0.1167,0.1202,0.1226,0.1232,0.1189,0.1216,0.1211,0.1208,0.119,0.1185,0.1231,0.123,0.123,0,0.0339,0.0354,0.0418,0.0448,0.0478,0.0555,0.0563,0.0615,0.0706,0.0732,0.0758,0.0928,0.1029,0.1117,0.1137,0.1191,0.119,0.1186,0.1205,0.1202,0.12,0.1183,0.118,0.1226,0.1226,0.1227,0.1227,0,0.03,0.0324,0.0328,0.0381,0.0426,0.0447,0.0525,0.0566,0.0617,0.0667,0.075,0.0872,0.0971,0.1021,0.1099,0.1148,0.1143,0.1188,0.1197,0.1189,0.1173,0.1171,0.1219,0.1221,0.1222,0.1223,0,0,0.0153,0.0272,0.0262,0.0293,0.0397,0.0421,0.0469,0.0524,0.0548,0.063,0.0651,0.0812,0.0868,0.0938,0.1036,0.1076,0.1075,0.1124,0.1127,0.1072,0.1086,0.1051,0.1046,0.1108,0.1108,0.1108,0.1065,0,0.0086,0.0117,0.0199,0.0215,0.0237,0.0344,0.0382,0.0454,0.0518,0.0562,0.0669,0.0741,0.0838,0.0889,0.0942,0.1058,0.1071,0.1079,0.1133,0.1134,0.1077,0.1044,0.1026,0.0985,0.1064,0.1064,0.1063,0,-0.0004,0.0043,0.0039,0.0151,0.0166,0.0173,0.0246,0.0309,0.0406,0.0465,0.054,0.0628,0.0729,0.0799,0.0926,0.092,0.0992,0.1058,0.1058,0.1063,0.1097,0.1019,0.0979,0.1061,0.1061,0.1061,0.1061,0,-0.0158,-0.0077,-0.0088,-0.0052,0.0077,0.0069,0.0129,0.0234,0.0303,0.0386,0.0422,0.0538,0.0594,0.0699,0.084,0.0889,0.0927,0.1019,0.1033,0.1029,0.1046,0.1045,0.107,0.107,0.107,0.107,0.107,0,-0.0257,-0.0265,-0.0181,-0.0182,-0.0193,-0.0059,-0.0051,0.0036,0.0157,0.022,0.0347,0.0385,0.0573,0.0629,0.0765,0.0858,0.0862,0.1004,0.1018,0.1008,0.1003,0.1114,0.112,0.1068,0.1069,0.1069,0.1069,0,-0.0421,-0.0362,-0.0361,-0.0281,-0.0271,-0.0285,-0.0155,-0.0088,0.0006,0.008,0.0106,0.026,0.0324,0.0453,0.0606,0.0751,0.0855,0.0876,0.082,0.0831,0.0963,0.0964,0.0929,0.0927,0.0926,0.0925,0.0924,0,-0.0489,-0.0516,-0.0478,-0.0468,-0.0453,-0.0429,-0.0361,-0.0205,-0.0114,-0.0,0.0036,0.0085,0.014,0.0296,0.0524,0.0681,0.0713,0.0775,0.0904,0.0931,0.0949,0.0953,0.0956,0.0872,0.0871,0.087,0.0869,0,-0.0601,-0.0618,-0.0601,-0.061,-0.0585,-0.049,-0.0411,-0.0373,-0.0176,-0.0162,-0.0121,-0.0099,0.0064,0.0248,0.0448,0.0563,0.0762,0.0761,0.0792,0.091,0.0875,0.0894,0.0899,0.086,0.0861,0.0861,0.0862,0.0862,-0.069,-0.0729,-0.0722,-0.0727,-0.0666,-0.0562,-0.05,-0.0405,-0.0344,-0.0251,-0.023,-0.0127,0.0062,0.0394,0.0479,0.0629,0.07,0.0807,0.0812,0.0818,0.0819,0.0783,0.0748,0.0748,0.0748,0.0748,0.0749,0,-0.0765,-0.0801,-0.0805,-0.0764,-0.0679,-0.0649,-0.0501,-0.0429,-0.0418,-0.0294,-0.0269,-0.0053,0.0169,0.0337,0.0597,0.0737,0.0761,0.0711,0.0744,0.0753,0.0761,0.0761,0.0674,0.0674,0.0673,0.0673,0,0,-0.0802,-0.0852,-0.0861,-0.079,-0.0749,-0.0631,-0.0566,-0.0507,-0.0391,-0.0361,-0.0202,0.0049,0.0272,0.0438,0.0527,0.0611,0.0645,0.0599,0.0654,0.0686,0.0692,0.0816,0.0826,0,0,0,0,0]}],[{"header":{"parameterUnit":"m.s-1","parameterCategory":2,"la1":30.2991,"la2":30.254,"lo1":-89.0895,"lo2":-89.0444,"dy":0.0017,"dx":0.0017,"nx":28,"ny":28,"refTime":"2025-08-02T21:00:00:Z","depth":"4","parameterNumber":2,"parameterNumberName":"U-component_of_CURRENTS"},"data":[0,0,0,0,0,0,0,0,0,0,0,0,0,0,0,0,0,0,0,0,0,0,0,0,0,0,0,0,0,0,0,0,0,0,0,0,0,0,0,0,0,0,0,0,0,0,0,0,0,0,0,0,0,0,0,0,0,0,-0.0885,-0.0886,0,-0.097,-0.0971,-0.0972,-0.1002,-0.1002,-0.1001,-0.1001,-0.1097,-0.11,-0.1103,0,0,0,0,0,0,0,0,0,0,0,0,0,-0.082,-0.0821,-0.0885,-0.0886,-0.0887,-0.097,-0.0971,-0.0972,-0.1002,-0.1002,-0.1001,-0.1001,-0.1096,-0.11,-0.1103,0,0,0,0,0,0,0,0,0,0,0,0,0,-0.0871,-0.0821,-0.0885,-0.0912,-0.0915,-0.097,-0.0971,-0.0972,-0.1002,-0.1002,-0.1001,-0.1001,-0.1095,-0.1099,-0.1104,-0.1139,0,0,-0.1117,-0.1118,0,0,0,0,0,0,0,0,-0.0868,-0.0873,-0.0907,-0.091,-0.0914,-0.0975,-0.0984,-0.1029,-0.1002,-0.0969,-0.1001,-0.1001,-0.1058,-0.1065,-0.1082,-0.1143,-0.1147,-0.1117,-0.1119,-0.1121,-0.1122,0,0,0,0,0,0,0,-0.0864,-0.087,-0.0918,-0.0908,-0.0913,-0.0945,-0.0951,-0.0992,-0.1015,-0.0972,-0.0974,-0.0984,-0.106,-0.1078,-0.1084,-0.1149,-0.1117,-0.1121,-0.1123,-0.1125,-0.1274,-0.1275,0,0,0,0,0,0,-0.0851,-0.0866,-0.0916,-0.0921,-0.089,-0.0946,-0.0953,-0.0956,-0.1014,-0.1023,-0.0985,-0.0985,-0.1071,-0.1079,-0.1088,-0.1158,-0.1121,-0.1125,-0.1128,-0.1272,-0.1274,-0.1275,0,0,0,0,0,0,-0.0849,-0.0854,-0.0912,-0.0896,-0.0906,-0.0947,-0.0951,-0.0958,-0.0994,-0.1024,-0.1032,-0.1015,-0.1071,-0.1082,-0.1146,-0.1161,-0.1127,-0.1131,-0.1271,-0.1273,-0.1275,-0.1283,0,0,0,0,0,0,-0.0847,-0.0853,-0.086,-0.0895,-0.0906,-0.0945,-0.0951,-0.096,-0.1,-0.1002,-0.1053,-0.106,-0.1071,-0.114,-0.115,-0.1166,-0.1134,-0.1269,-0.1272,-0.1274,-0.1281,-0.1285,-0.1288,0,0,0,0,0,-0.0844,-0.0851,-0.0859,-0.0866,-0.0911,-0.0946,-0.0955,-0.0983,-0.1002,-0.1016,-0.1062,-0.106,-0.1163,-0.1145,-0.1157,-0.1174,-0.1268,-0.1271,-0.1274,-0.1279,-0.1284,-0.1288,0,0,0,0,0,0,-0.0829,-0.0856,-0.0865,-0.0881,-0.0912,-0.0951,-0.0971,-0.0998,-0.1048,-0.1059,-0.1089,-0.11,-0.1152,-0.1174,-0.1153,-0.1226,-0.1211,-0.1217,-0.1211,-0.1216,-0.122,-0.1205,-0.1138,0,0,0,0,0,-0.0827,-0.0839,-0.0871,-0.0886,-0.0901,-0.0943,-0.0966,-0.099,-0.1033,-0.1055,-0.1094,-0.1138,-0.1173,-0.1204,-0.1232,-0.129,-0.1286,-0.1306,-0.131,-0.1313,-0.131,-0.1334,-0.1339,-0.1286,-0.1286,-0.1286,0,0,-0.0821,-0.0844,-0.0847,-0.0884,-0.0911,-0.0938,-0.0956,-0.0996,-0.1029,-0.106,-0.1124,-0.1152,-0.119,-0.1238,-0.1264,-0.1262,-0.1323,-0.1317,-0.1319,-0.1315,-0.1338,-0.1343,-0.1347,-0.1288,-0.1288,-0.1287,0,0,-0.0817,-0.0839,-0.0846,-0.0874,-0.0919,-0.0949,-0.0965,-0.1018,-0.105,-0.1118,-0.1137,-0.1181,-0.1254,-0.1272,-0.1294,-0.1344,-0.1335,-0.1357,-0.1376,-0.14,-0.1404,-0.1407,-0.1389,-0.1391,-0.1368,-0.1368,-0.1368,0,-0.0811,-0.082,-0.0855,-0.0877,-0.0901,-0.0955,-0.0975,-0.1021,-0.1093,-0.1124,-0.1139,-0.1241,-0.1265,-0.132,-0.133,-0.135,-0.1352,-0.1352,-0.1402,-0.1406,-0.1409,-0.139,-0.1392,-0.1369,-0.1369,-0.1369,-0.1369,0,-0.0807,-0.0823,-0.0834,-0.0874,-0.0913,-0.0937,-0.1001,-0.1047,-0.1102,-0.1148,-0.1222,-0.1268,-0.1327,-0.1339,-0.1352,-0.1393,-0.1381,-0.1394,-0.1384,-0.1415,-0.1393,-0.1395,-0.137,-0.137,-0.137,-0.1369,0,0,-0.0772,-0.0814,-0.0824,-0.0838,-0.0911,-0.0943,-0.1005,-0.1068,-0.1116,-0.1192,-0.1251,-0.1313,-0.1348,-0.1374,-0.14,-0.1421,-0.1434,-0.1422,-0.1423,-0.139,-0.1461,-0.1347,-0.1338,-0.1462,-0.1463,-0.1464,-0.1427,0,-0.0755,-0.0778,-0.0816,-0.0854,-0.0871,-0.0938,-0.0979,-0.1056,-0.1142,-0.1214,-0.1279,-0.1345,-0.1363,-0.1396,-0.1425,-0.1437,-0.1443,-0.1441,-0.1447,-0.1446,-0.1331,-0.1338,-0.1467,-0.1429,-0.1429,-0.1429,-0.143,0,-0.0745,-0.0761,-0.0782,-0.0829,-0.0842,-0.0883,-0.0977,-0.1028,-0.114,-0.1202,-0.1301,-0.1362,-0.1422,-0.1428,-0.1471,-0.1473,-0.1465,-0.1464,-0.1463,-0.1355,-0.1337,-0.1399,-0.1433,-0.1432,-0.1432,-0.1432,-0.1432,0,-0.0709,-0.0748,-0.0762,-0.078,-0.0837,-0.087,-0.0918,-0.1029,-0.1071,-0.1219,-0.1266,-0.137,-0.1408,-0.1446,-0.1466,-0.1475,-0.1486,-0.1499,-0.1381,-0.1371,-0.1481,-0.1478,-0.1506,-0.1506,-0.1507,-0.1507,-0.1507,0,-0.0673,-0.0687,-0.0747,-0.0753,-0.0774,-0.0845,-0.0904,-0.097,-0.1063,-0.111,-0.1262,-0.1303,-0.1415,-0.1449,-0.1466,-0.1421,-0.1491,-0.1369,-0.1357,-0.1483,-0.1481,-0.148,-0.1477,-0.1505,-0.1506,-0.1506,-0.1506,0,-0.0622,-0.0653,-0.0673,-0.0732,-0.0756,-0.0785,-0.0869,-0.09,-0.1008,-0.108,-0.1117,-0.1243,-0.1284,-0.1364,-0.1403,-0.1386,-0.1378,-0.1338,-0.144,-0.1437,-0.1243,-0.1241,-0.12,-0.1195,-0.1192,-0.1189,-0.1186,0,-0.0592,-0.0598,-0.0659,-0.0661,-0.0687,-0.0744,-0.0761,-0.0866,-0.09,-0.1024,-0.1022,-0.1108,-0.1187,-0.1155,-0.1246,-0.1266,-0.1256,-0.1245,-0.1264,-0.122,-0.1213,-0.1218,-0.1221,-0.118,-0.118,-0.1179,-0.1178,0,-0.0536,-0.0566,-0.0574,-0.0581,-0.0608,-0.0633,-0.0677,-0.069,-0.0796,-0.0892,-0.0918,-0.0975,-0.1003,-0.1064,-0.1084,-0.1104,-0.1263,-0.1207,-0.1215,-0.1233,-0.1196,-0.1194,-0.1202,-0.1165,-0.1167,-0.1168,-0.1169,0,-0.0506,-0.0494,-0.0507,-0.0502,-0.0509,-0.0507,-0.0562,-0.0585,-0.0629,-0.0762,-0.0755,-0.0873,-0.096,-0.0973,-0.0997,-0.1009,-0.1,-0.099,-0.1009,-0.1024,-0.0991,-0.0921,-0.0782,0,0,0,0,0,-0.0476,-0.0445,-0.0425,-0.0416,-0.0402,-0.0415,-0.0475,-0.0533,-0.0643,-0.062,-0.0689,-0.0722,-0.078,-0.0835,-0.0813,-0.0918,-0.1003,-0.0889,-0.1001,-0.1096,-0.111,-0.1093,0,0,0,0,0,0,-0.0457,-0.0433,-0.0405,-0.0326,-0.0293,-0.0293,-0.0334,-0.0415,-0.0413,-0.0529,-0.0556,-0.0649,-0.0707,-0.0762,-0.0783,-0.0801,-0.0853,-0.0952,-0.095,-0.1088,-0.1101,-0.1112,-0.1099,0,0,0,0,0]},{"header":{"parameterUnit":"m.s-1","parameterCategory":2,"la1":30.2991,"la2":30.254,"lo1":-89.0895,"lo2":-89.0444,"dy":0.0017,"dx":0.0017,"nx":28,"ny":28,"refTime":"2025-08-02T21:00:00:Z","depth":"4","parameterNumber":3,"parameterNumberName":"V-component_of_CURRENTS"},"data":[0,0,0,0,0,0,0,0,0,0,0,0,0,0,0,0,0,0,0,0,0,0,0,0,0,0,0,0,0,0,0,0,0,0,0,0,0,0,0,0,0,0,0,0,0,0,0,0,0,0,0,0,0,0,0,0,0,0,-0.0314,-0.0314,0,-0.0311,-0.0311,-0.0311,-0.03,-0.03,-0.03,-0.0299,-0.0256,-0.0255,-0.0254,0,0,0,0,0,0,0,0,0,0,0,0,0,-0.0287,-0.0288,-0.0314,-0.0314,-0.0314,-0.0311,-0.0311,-0.0311,-0.03,-0.03,-0.03,-0.0299,-0.0256,-0.0255,-0.0254,0,0,0,0,0,0,0,0,0,0,0,0,0,-0.0294,-0.0288,-0.0314,-0.0308,-0.0307,-0.0311,-0.0311,-0.0311,-0.03,-0.03,-0.03,-0.0299,-0.0256,-0.0255,-0.0254,-0.0254,0,0,-0.025,-0.0249,0,0,0,0,0,0,0,0,-0.0293,-0.0295,-0.0309,-0.0309,-0.0308,-0.0305,-0.0285,-0.0289,-0.0301,-0.0304,-0.0299,-0.0299,-0.0268,-0.0266,-0.0268,-0.0252,-0.025,-0.0249,-0.0249,-0.0248,-0.0248,0,0,0,0,0,0,0,-0.0293,-0.0295,-0.0313,-0.0309,-0.0308,-0.0297,-0.0298,-0.0286,-0.0288,-0.0303,-0.0303,-0.0301,-0.0268,-0.0269,-0.0266,-0.0249,-0.0249,-0.0248,-0.0247,-0.0247,-0.0243,-0.0243,0,0,0,0,0,0,-0.0294,-0.0295,-0.0314,-0.0313,-0.0299,-0.0298,-0.0298,-0.0307,-0.0289,-0.0286,-0.0302,-0.0301,-0.0272,-0.0268,-0.0265,-0.0263,-0.0248,-0.0247,-0.0246,-0.0242,-0.0243,-0.0243,0,0,0,0,0,0,-0.0294,-0.0296,-0.0314,-0.0302,-0.0304,-0.0299,-0.0308,-0.0307,-0.0309,-0.0288,-0.0284,-0.0305,-0.0271,-0.0267,-0.0257,-0.0261,-0.0246,-0.0245,-0.0241,-0.0242,-0.0243,-0.0259,0,0,0,0,0,0,-0.0293,-0.0296,-0.0312,-0.0303,-0.0305,-0.0323,-0.0308,-0.0307,-0.0308,-0.0307,-0.0289,-0.0285,-0.027,-0.026,-0.0256,-0.0259,-0.0244,-0.024,-0.0242,-0.0243,-0.0258,-0.0261,-0.0263,0,0,0,0,0,-0.0292,-0.0313,-0.0313,-0.0315,-0.0323,-0.0324,-0.0324,-0.0318,-0.0309,-0.0317,-0.0301,-0.0285,-0.0266,-0.0259,-0.0255,-0.0257,-0.024,-0.0241,-0.0243,-0.0257,-0.026,-0.0263,0,0,0,0,0,0,-0.0312,-0.0313,-0.0313,-0.0334,-0.0333,-0.0322,-0.033,-0.0322,-0.0316,-0.0315,-0.029,-0.0285,-0.0281,-0.027,-0.0263,-0.0262,-0.0252,-0.0253,-0.0264,-0.0267,-0.027,-0.0276,-0.0243,0,0,0,0,0,-0.0323,-0.0336,-0.0333,-0.0349,-0.035,-0.034,-0.0341,-0.0337,-0.0327,-0.0325,-0.0308,-0.0294,-0.0285,-0.0276,-0.027,-0.0264,-0.0214,-0.0266,-0.0269,-0.0271,-0.0275,-0.0183,-0.0176,-0.0249,-0.0249,-0.0249,0,0,-0.0335,-0.0337,-0.0345,-0.0354,-0.0351,-0.0362,-0.034,-0.0345,-0.0352,-0.032,-0.0321,-0.0304,-0.0288,-0.0285,-0.0282,-0.0273,-0.0226,-0.0273,-0.0275,-0.0277,-0.0184,-0.0176,-0.0169,-0.025,-0.025,-0.0249,0,0,-0.0357,-0.0366,-0.0381,-0.0386,-0.0387,-0.0381,-0.0383,-0.0375,-0.037,-0.037,-0.0348,-0.0332,-0.032,-0.0304,-0.0296,-0.031,-0.0246,-0.031,-0.032,-0.0231,-0.0223,-0.0216,-0.0142,-0.0128,-0.0306,-0.0306,-0.0307,0,-0.0366,-0.0394,-0.0386,-0.0403,-0.0415,-0.0391,-0.0415,-0.0405,-0.0393,-0.0388,-0.0377,-0.0343,-0.0331,-0.0312,-0.0321,-0.0315,-0.0251,-0.0306,-0.0231,-0.0223,-0.0215,-0.014,-0.0124,-0.0307,-0.0307,-0.0307,-0.0307,0,-0.0398,-0.0426,-0.0434,-0.0449,-0.0462,-0.0476,-0.0467,-0.0465,-0.0452,-0.0436,-0.0414,-0.0382,-0.0359,-0.0353,-0.0343,-0.0291,-0.026,-0.0244,-0.0215,-0.0208,-0.0131,-0.0114,-0.0309,-0.0308,-0.0308,-0.0308,0,0,-0.0402,-0.0447,-0.0453,-0.0478,-0.0492,-0.0503,-0.0514,-0.0514,-0.0514,-0.0479,-0.0462,-0.0438,-0.04,-0.0389,-0.0356,-0.0285,-0.0181,-0.0242,-0.0237,-0.0156,0.0025,-0.0015,-0.0,-0.0131,-0.0128,-0.0126,0.0058,0,-0.0427,-0.0476,-0.0496,-0.0545,-0.0569,-0.057,-0.0584,-0.0579,-0.056,-0.0533,-0.0472,-0.0451,-0.0417,-0.0402,-0.0319,-0.0224,-0.0138,-0.0233,-0.0006,0.0,-0.0025,0.0017,-0.0118,0.0071,0.0075,0.0078,0.008,0,-0.0453,-0.0484,-0.0541,-0.0599,-0.0611,-0.0638,-0.0659,-0.0666,-0.0622,-0.0605,-0.0548,-0.0495,-0.0405,-0.0372,-0.0166,-0.0219,-0.0101,-0.0014,-0.0004,-0.0026,-0.0009,0.0061,0.0111,0.0109,0.0107,0.0104,0.0103,0,-0.0457,-0.0521,-0.057,-0.0589,-0.0639,-0.067,-0.0694,-0.0687,-0.069,-0.0641,-0.0625,-0.0505,-0.0443,-0.0272,-0.0109,-0.0118,0.0135,0.0145,0.0227,0.0225,0.0215,0.0206,0.0312,0.0312,0.0311,0.0311,0.031,0,-0.0476,-0.0521,-0.0579,-0.0605,-0.0665,-0.0695,-0.074,-0.0745,-0.0732,-0.0717,-0.0654,-0.0602,-0.0408,-0.0251,-0.0091,0.0116,0.016,0.0235,0.0276,0.0201,0.0188,0.0228,0.0216,0.0318,0.0316,0.0315,0.0314,0,-0.0481,-0.0517,-0.0576,-0.0642,-0.067,-0.0711,-0.0783,-0.0795,-0.0794,-0.0767,-0.0751,-0.0643,-0.045,-0.0255,0.0018,0.0121,0.0323,0.0389,0.0289,0.032,0.0354,0.0338,0.0506,0.0506,0.0506,0.0506,0.0506,0,-0.049,-0.0518,-0.0598,-0.0634,-0.0674,-0.0741,-0.0778,-0.0815,-0.0817,-0.0781,-0.0747,-0.0602,-0.0501,-0.0138,0.0042,0.0343,0.0373,0.0466,0.0411,0.0353,0.0377,0.0361,0.0346,0.0507,0.0507,0.0507,0.0507,0,-0.0502,-0.0528,-0.0573,-0.0636,-0.0692,-0.0757,-0.081,-0.0815,-0.0823,-0.0826,-0.071,-0.0566,-0.036,-0.0123,0.0094,0.0306,0.0394,0.0469,0.047,0.0419,0.0357,0.0377,0.0361,0.0507,0.0507,0.0507,0.0507,0,-0.0508,-0.0537,-0.0581,-0.0638,-0.0703,-0.0746,-0.0786,-0.0776,-0.078,-0.0732,-0.0685,-0.0504,-0.0396,-0.014,0.0069,0.0255,0.0295,0.0341,0.0349,0.035,0.0224,0.0117,0.0243,0,0,0,0,0,-0.0507,-0.0533,-0.0581,-0.0644,-0.0701,-0.0737,-0.0786,-0.0809,-0.0811,-0.0717,-0.0701,-0.0508,-0.0244,-0.0141,0.0048,0.006,0.0313,0.028,0.0367,0.0511,0.051,0.0381,0,0,0,0,0,0,-0.0512,-0.055,-0.0569,-0.0623,-0.0663,-0.0726,-0.0755,-0.0763,-0.0706,-0.0685,-0.0528,-0.0481,-0.0205,-0.033,0.0052,0.0098,0.0171,0.04,0.0403,0.0511,0.0511,0.051,0.0377,0,0,0,0,0]}]]